STARLINK-31952, 59867

Orbit data source: Space-Track

STARLINK-31952, 59867 is a payload satellite owned by SpaceX/Seattle (US) in LEO that was launched on Fri, 24 May 2024 UTC via an FALCON 9 launch vehicle from the Air Force Eastern Test Range (AFETR). Payload-class satellites include a variety of spacecraft equipped with specific instruments for various scientific and technological missions. These include communications satellites like Starlink; space stations such as the ISS; scientific satellites like the Hubble; Earth observation satellites from companies like Planet Labs, Umbra, and HawkEye 360; GPS; miniature CubeSats for education and research; and military/defense satellites.

Loading next visibility...
Identifier
59867, 2024-098K
Orbit
LEO
Country
Flag of USUS
Related business
Manufacturer
SpaceX/Seattle
Mission
Operational Commercial Communications
Bus & Motor
STARLINK V2M, Unknown motor
Mass
730 kg wet, ~700 kg dry
Launch date (UTC)
2024-05-24 (2 years ago)
Launch vehicle
FALCON 9
Launch site
Air Force Eastern Test Range (AFETR)
Object type
Payload
Rocket body
Debris
Shape & HBR
Box + 2 Pan, 17.7 m
Radar Cross Section
33.884 m², Large (>1 m²)

Expand to show TLE details & history
Last TLE update: 3 days ago

TLE from 3 days ago
0 STARLINK-31952
1 59867U 24098K   26170.75217823 -.00000999  00000-0 -26782-4 0  9997
2 59867  43.0050  61.7438 0001643 282.3954  77.6713 15.27570797117454
Epoch: 2026-06-19T18:03Z
TLE epoch observation values (Epoch: 2026-06-19T18:03:08.199Z)
Latitude
-0.00005°
Longitude
-117.01707°
Altitude
482.612 km
Speed
7.626 km/s
True Right ascension
04h 06m 58s
True Declination
0° 00' 00"
Sunlit
Object was in daylight at epoch
Visualization orbit readout
Latitude
Unknown
Longitude
Unknown
Altitude
Unknown
Speed
Unknown
Apparent Right ascension
Unknown
Apparent Declination
Unknown
Sunlit
N/A
Visualization observer readout
Local Sidereal Time
21:28:20
Azimuth
Unknown
Elevation
Unknown
Doppler factor
Unknown
Orbital elements
Apogee altitude
486.149 km
Perigee altitude
483.893 km
Semi-major axis
6,863.158 km
Eccentricity
0.00016
Inclination
43.005°
RAAN
61.7438°
Arg. of periapsis
282.3954°
True anomaly
77.68969°
Mean anomaly
77.6713°
Eccentric anomaly
77.6805°
Mean motion
3.81731 °/min
Orbital period
94.31 mins
BSTAR
-0.000026782
Loading maneuver chart data...
Computing Atmospheric mass density...
Loading historical data...
Loading historical data...
Loading historical data...
Loading historical data...
Loading historical data...
Loading historical data...
Loading historical data...

Documentation

Showing up to 5 results
|